DECAYED
Showing default

LEMUR 2 JEREMIAH, 46911 (Decayed)

Orbit data source: Space-Track

LEMUR 2 JEREMIAH, 46911 was a payload satellite owned by Spire (US) in LEO that was launched on Sat, 07 Nov 2020 UTC via a PSLV-DL launch vehicle from the Sirharikota (SRI). Payload-class satellites include a variety of spacecraft equipped with specific instruments for various scientific and technological missions. These include communications satellites like Starlink; space stations such as the ISS; scientific satellites like the Hubble; Earth observation satellites from companies like Planet Labs, Umbra, and HawkEye 360; GPS; miniature CubeSats for education and research; and military/defense satellites.

Not visible in the next 10 days
Identifier
46911, 2020-081G
Orbit
Decayed
Last TLE update
8 months ago
Origin
Manufacturer
Spire/Glasgow
Mission
Decayed Commercial Com/MetRO
Bus & Motor
CUBESAT 3U, Unknown motor
Mass
4.6 kg wet, 4.6 kg dry
Launch date (UTC)
2020-11-07 (5 years ago)
Launch vehicle
PSLV-DL
Launch site
Sirharikota (SRI)
Object type
Payload
Rocket body
Debris
Shape & HBR
Box + 2 Pan, 0.7 m
Radar Cross Section
0.124 m², Small (<0.1 m²)

Expand to show TLE details & history

TLE from 8 months ago
0 LEMUR 2 JEREMIAH
1 46911U 20081G   24302.55856808  .02807238  13589-1  30660-2 0  9992
2 46911  36.9075 349.6530 0019912 104.3321 255.9668 16.11557093219662
Epoch: 2024-10-28T13:24Z
TLE epoch observation values (Epoch: 2024-10-28T13:24:20.282Z)
Latitude
-0.00002°
Longitude
111.18543°
Altitude
244.871 km
Speed
7.76 km/s
True Right ascension
23h 18m 36s
True Declination
0° 00' 00"
Sunlit
Object was in full shadow at epoch
Visualization orbit readout
Visualization observer readout
Orbital elements
Apogee altitude
258.823 km
Perigee altitude
232.445 km
Semi-major axis
6,623.771 km
Eccentricity
0.00199
Inclination
36.9075°
RAAN
349.653°
Arg. of periapsis
104.3321°
True anomaly
Unknown
Mean anomaly
255.9668°
Eccentric anomaly
Unknown
Mean motion
4.02611 °/min
Orbital period
89.42 mins
BSTAR
0.003066
Loading maneuver chart data...
Loading SW <> Apogee altitude chart data...
Loading historical data...
Loading historical data...
Loading historical data...
Loading historical data...
Loading historical data...
Loading historical data...
Loading historical data...

LEMUR 2 JEREMIAH Visibility

Observer location: undefined°, undefined°

This satellite is decayed
Span
Click to sort rows by Start time (UTC) header in descending order
Start Az.
Max El. time (UTC)
Max El. Az.
Max El.
End time (UTC)
End Az.
|